Location: Sungai Bunut
(2.6333°N, 113.7333°E)
Time: 02:58:26
(UTC+00:00)

S-56A Canister/Altair - Pass Details

Date: 04 December 2023
Orbit: 640 x 2488 km, 38.9° (Epoch: 24 February)

Event Time Altitude Azimuth Distance (km) Brightness Sun altitude
Rises 10:26:10 0° 335° (NNW) 3,724 11.1 -3.5°
Reaches altitude 10° 10:28:56 10° 348° (NNW) 3,005 10.5 -4.2°
Maximum altitude 10:35:16 28° 45° (NE) 2,430 9.6 -5.7°
Drops below altitude 10° 10:43:58 10° 99° (E) 4,223 10.8 -7.7°
Sets 10:48:40 0° 109° (ESE) 5,529 11.4 -8.8°
